Le nostre stazioni meteo in Italia

Pubblicità
Il mio iltempo24.it
Kleine Brogel, Belgio (6479): Temperatura & dewpoint: 16.11.2019 08:00:00 - 22.11.2019 08:00:00 (CET)Kleine Brogel, Belgio (6479): velocità del vento & gusts: 16.11.2019 08:00:00 - 22.11.2019 08:00:00 (CET)Kleine Brogel, Belgio (6479): direzione del vento: 16.11.2019 08:00:00 - 22.11.2019 08:00:00 (CET)Kleine Brogel, Belgio (6479): reduced air pressure: 16.11.2019 08:00:00 - 22.11.2019 08:00:00 (CET)Kleine Brogel, Belgio (6479): visibility: 16.11.2019 08:00:00 - 22.11.2019 08:00:00 (CET)
Data & Tempo tt [°C] td [°C] ff [km/h] ff [kn] fx [km/h] fx [kn] dd ppp [hPa] vv [km]
22.11.2019 08:00:00 6,0 4,6 4 2 7 4 N 1005,3 15
22.11.2019 07:00:00 5,2 4,2 4 2 - - N 1005,1 15
22.11.2019 06:00:00 5,0 4,0 4 2 11 6 N 1005,1 17
22.11.2019 05:00:00 3,9 3,1 4 2 7 4 N 1005,1 20
22.11.2019 04:00:00 3,6 2,8 4 2 - - N 1005,0 13
22.11.2019 03:00:00 2,7 2,0 5 3 7 4 E 1005,1 7
22.11.2019 02:00:00 2,4 1,8 4 2 7 4 N 1005,2 10
22.11.2019 01:00:00 2,2 1,6 4 2 - - - 1005,2 5
22.11.2019 00:00:00 2,6 1,9 4 2 7 4 - 1005,5 7
21.11.2019 23:00:00 3,2 1,9 4 2 7 4 N 1005,7 12
21.11.2019 22:00:00 3,9 2,2 4 2 - - N 1006,0 17
21.11.2019 21:00:00 2,1 1,4 4 2 7 4 N 1006,2 9
21.11.2019 20:00:00 2,5 1,8 4 2 7 4 N 1006,2 9
21.11.2019 19:00:00 2,5 1,6 4 2 - - N 1006,6 8
21.11.2019 18:00:00 3,5 2,0 4 2 7 4 N 1006,6 10
21.11.2019 17:00:00 3,7 2,0 4 2 11 6 N 1007,0 10
21.11.2019 16:00:00 4,0 1,8 4 2 - - N 1007,1 10
21.11.2019 15:00:00 4,0 1,7 4 2 14 8 N 1007,1 10
21.11.2019 14:00:00 4,1 1,8 11 6 14 8 ENE 1007,3 9
21.11.2019 13:00:00 3,0 1,2 4 2 - - N 1008,1 8
21.11.2019 12:00:00 2,0 0,8 4 2 14 8 N 1009,0 5
21.11.2019 11:00:00 0,8 0,2 7 4 18 10 E 1009,7 3,0
21.11.2019 10:00:00 0,0 -0,3 11 6 - - ENE 1009,7 2,5
21.11.2019 09:00:00 -0,1 -0,5 7 4 22 12 E 1010,1 2,5
21.11.2019 08:00:00 -0,4 -0,5 11 6 18 10 ENE 1010,3 0,8
21.11.2019 07:00:00 -0,8 -0,9 11 6 - - ENE 1010,7 1,0
21.11.2019 06:00:00 -1,6 -1,9 7 4 11 6 ENE 1011,0 3,8
21.11.2019 05:00:00 -1,5 -1,7 4 2 11 6 N 1011,3 2,4
21.11.2019 04:00:00 -1,6 -1,8 4 2 - - N 1011,5 4,3
21.11.2019 03:00:00 -0,9 -1,0 7 4 11 6 ENE 1011,7 4,7
21.11.2019 02:00:00 -0,8 -1,1 7 4 14 8 ENE 1012,2 5
21.11.2019 01:00:00 -0,4 -0,6 11 6 - - ENE 1012,7 5
21.11.2019 00:00:00 -0,2 -0,4 7 4 14 8 ENE 1013,2 5
20.11.2019 23:00:00 -0,4 -0,5 4 2 11 6 N 1013,7 3,5
20.11.2019 22:00:00 -0,1 -0,2 4 2 - - N 1014,3 2,4
20.11.2019 21:00:00 0,9 0,9 7 4 18 10 ENE 1014,7 1,1
20.11.2019 20:00:00 1,3 1,0 11 6 18 10 ENE 1015,0 2,1
20.11.2019 19:00:00 2,2 1,5 11 6 - - ENE 1015,1 5
20.11.2019 18:00:00 3,5 1,5 7 4 18 10 ENE 1015,2 15
20.11.2019 17:00:00 4,8 1,6 7 4 14 8 E 1015,5 20
20.11.2019 16:00:00 5,3 1,1 7 4 - - E 1015,7 20
20.11.2019 15:00:00 6,1 1,0 11 6 22 12 E 1016,2 20
20.11.2019 14:00:00 6,2 1,4 11 6 22 12 E 1016,7 20
20.11.2019 13:00:00 5,9 2,0 7 4 - - E 1017,3 20
20.11.2019 12:00:00 4,9 1,6 7 4 7 4 N 1017,8 18
20.11.2019 11:00:00 3,7 1,0 4 2 4 2 N 1018,6 18
20.11.2019 10:00:00 0,8 0,4 4 2 - - N 1019,0 8
20.11.2019 09:00:00 -1,3 -1,3 2 1 0 0 - 1019,1 3,6
20.11.2019 08:00:00 -1,8 -1,8 4 2 4 2 N 1019,2 3,0
20.11.2019 07:00:00 -1,3 -1,4 4 2 - - N 1019,2 8
20.11.2019 06:00:00 -1,6 -1,8 2 1 4 2 - 1019,2 5
20.11.2019 05:00:00 -1,4 -1,7 2 1 4 2 - 1019,5 6
20.11.2019 04:00:00 -1,4 -1,7 4 2 - - N 1019,8 9
20.11.2019 03:00:00 -1,0 -1,3 4 2 7 4 N 1020,0 18
20.11.2019 02:00:00 -0,3 -0,6 5 3 7 4 SO 1020,0 6
20.11.2019 01:00:00 -0,6 -0,6 4 2 - - N 1020,2 6
20.11.2019 00:00:00 -0,2 -0,3 4 2 4 2 N 1020,2 3,4
19.11.2019 23:00:00 0,3 0,2 2 1 7 4 - 1020,2 2,8
19.11.2019 22:00:00 2,0 1,1 2 1 - - - 1020,0 7
19.11.2019 21:00:00 3,9 1,9 4 2 7 4 N 1019,7 15
19.11.2019 20:00:00 3,7 3,1 4 2 4 2 N 1019,5 15
19.11.2019 19:00:00 5,1 3,0 4 2 - - N 1019,1 15
19.11.2019 18:00:00 5,1 3,5 4 2 14 8 N 1018,8 15
19.11.2019 17:00:00 5,5 3,1 4 2 11 6 N 1018,7 15
19.11.2019 16:00:00 6,0 3,0 7 4 - - OSO 1018,2 15
19.11.2019 15:00:00 7,3 2,8 14 8 25 14 OSO 1017,7 15
19.11.2019 14:00:00 7,7 2,8 14 8 22 12 OSO 1017,6 20
19.11.2019 13:00:00 7,3 3,4 11 6 - - O 1017,7 20
19.11.2019 12:00:00 6,5 3,3 14 8 25 14 OSO 1017,5 20
19.11.2019 11:00:00 4,7 3,3 11 6 18 10 SO 1017,7 15
19.11.2019 10:00:00 4,1 2,8 14 8 - - OSO 1017,1 15
19.11.2019 09:00:00 3,9 2,8 11 6 22 12 OSO 1016,5 15
19.11.2019 08:00:00 3,9 2,8 11 6 18 10 SO 1016,2 15
19.11.2019 07:00:00 3,5 2,6 11 6 - - SO 1015,3 20
19.11.2019 06:00:00 3,5 2,6 14 8 18 10 SO 1015,0 20
19.11.2019 05:00:00 3,5 2,2 11 6 18 10 OSO 1014,7 20
19.11.2019 04:00:00 3,7 2,5 14 8 - - OSO 1014,2 20
19.11.2019 03:00:00 3,7 2,4 11 6 18 10 OSO 1013,8 20
19.11.2019 02:00:00 4,2 3,1 11 6 22 12 OSO 1013,7 20
19.11.2019 01:00:00 5,0 4,0 11 6 - - OSO 1013,2 20
19.11.2019 00:00:00 5,5 4,3 11 6 22 12 O 1012,6 20
18.11.2019 23:00:00 6,5 5,2 14 8 22 12 O 1011,8 18
18.11.2019 22:00:00 6,8 6,2 7 4 - - O 1011,2 15
18.11.2019 21:00:00 6,5 6,3 11 6 22 12 O 1010,3 3,5
18.11.2019 20:00:00 5,9 5,7 11 6 18 10 OSO 1009,7 2,2
18.11.2019 19:00:00 5,5 5,3 11 6 - - SO 1009,6 2,5
18.11.2019 18:00:00 5,5 5,3 11 6 18 10 OSO 1009,5 2,5
18.11.2019 17:00:00 5,6 5,3 11 6 18 10 O 1009,1 3,0
18.11.2019 16:00:00 5,8 5,4 11 6 - - O 1008,7 3,0
18.11.2019 15:00:00 5,6 5,2 11 6 18 10 O 1008,5 3,0
18.11.2019 14:00:00 5,6 5,3 7 4 18 10 O 1008,3 3,0
18.11.2019 13:00:00 5,5 4,9 7 4 - - ONO 1008,2 8
18.11.2019 12:00:00 5,3 4,8 7 4 18 10 ONO 1008,2 8
18.11.2019 11:00:00 5,0 4,4 7 4 22 12 NO 1008,5 6
18.11.2019 10:00:00 4,5 4,1 11 6 - - NO 1008,6 6
18.11.2019 09:00:00 4,4 4,0 7 4 18 10 NO 1008,6 4,0
18.11.2019 08:00:00 4,1 3,8 7 4 18 10 NO 1008,3 6
18.11.2019 07:00:00 4,0 3,6 9 5 - - NNO 1008,2 10
18.11.2019 06:00:00 3,7 3,2 11 6 29 16 NNO 1007,7 12
18.11.2019 05:00:00 3,7 3,2 14 8 32 18 N 1008,0 14
18.11.2019 04:00:00 4,0 3,5 11 6 - - NNO 1007,7 9
18.11.2019 03:00:00 3,9 3,5 14 8 22 12 NNO 1008,3 10
18.11.2019 02:00:00 3,7 3,4 11 6 18 10 NNO 1008,5 9
18.11.2019 01:00:00 3,7 3,3 7 4 - - N 1009,0 4,3
18.11.2019 00:00:00 3,7 3,3 7 4 14 8 NNO 1009,2 4,8
17.11.2019 23:00:00 3,8 3,2 7 4 14 8 NNO 1009,2 6
17.11.2019 22:00:00 4,5 2,5 7 4 - - NNE 1009,7 9
17.11.2019 21:00:00 4,5 2,5 11 6 18 10 N 1009,6 14
17.11.2019 20:00:00 4,5 2,6 7 4 14 8 NNO 1010,1 11
17.11.2019 19:00:00 4,3 2,7 7 4 - - N 1010,0 10
17.11.2019 18:00:00 - - - - - - - - -
17.11.2019 17:00:00 - - - - - - - - -
17.11.2019 16:00:00 5,4 2,8 4 2 - - N 1010,7 15
17.11.2019 15:00:00 6,1 2,8 11 6 14 8 NE 1011,2 16
17.11.2019 14:00:00 6,4 2,4 7 4 11 6 NE 1011,2 13
17.11.2019 13:00:00 6,2 2,2 7 4 - - NNE 1011,2 20
17.11.2019 12:00:00 4,2 1,7 4 2 18 10 N 1011,8 20
17.11.2019 11:00:00 3,9 1,6 7 4 14 8 ENE 1012,1 14
17.11.2019 10:00:00 1,4 0,5 4 2 - - N 1012,2 11
17.11.2019 09:00:00 -1,5 -1,6 2 1 4 2 - 1012,7 5
17.11.2019 08:00:00 -1,3 -1,5 2 1 4 2 - 1012,8 4,4
17.11.2019 07:00:00 -1,5 -1,7 4 2 - - N 1012,3 4,6
17.11.2019 06:00:00 -0,8 -0,9 4 2 4 2 N 1011,8 6
17.11.2019 05:00:00 -0,5 -0,7 4 2 4 2 N 1011,6 4,5
17.11.2019 04:00:00 1,3 0,5 4 2 - - N 1011,8 12
17.11.2019 03:00:00 2,4 1,0 4 2 7 4 N 1012,3 19
17.11.2019 02:00:00 3,0 1,4 4 2 7 4 N 1011,7 17
17.11.2019 01:00:00 4,4 1,8 4 2 - - N 1012,0 20
17.11.2019 00:00:00 4,3 1,8 4 2 7 4 N 1011,8 20
16.11.2019 23:00:00 4,5 1,9 4 2 7 4 N 1011,6 20
16.11.2019 22:00:00 4,5 2,0 4 2 - - N 1011,7 20
16.11.2019 21:00:00 4,0 1,9 4 2 4 2 N 1011,7 20
16.11.2019 20:00:00 4,1 1,7 4 2 7 4 N 1011,3 20
16.11.2019 19:00:00 4,9 1,9 4 2 - - N 1010,7 9
16.11.2019 18:00:00 2,7 1,3 4 2 4 2 N 1010,1 20
16.11.2019 17:00:00 5,5 1,7 4 2 14 8 N 1009,5 20
16.11.2019 16:00:00 6,7 2,2 7 4 - - S 1008,8 14
16.11.2019 15:00:00 7,4 2,1 7 4 18 10 N 1008,5 20
16.11.2019 14:00:00 7,1 2,4 7 4 22 12 S 1008,7 20
16.11.2019 13:00:00 7,4 2,4 11 6 - - SSO 1008,8 20
16.11.2019 12:00:00 7,4 2,4 11 6 22 12 SSO 1008,3 20
16.11.2019 11:00:00 5,2 2,0 7 4 11 6 S 1008,7 20
16.11.2019 10:00:00 2,9 1,1 4 2 - - N 1008,6 19
16.11.2019 09:00:00 0,1 -0,2 4 2 4 2 N 1008,1 20
16.11.2019 08:00:00 0,0 -0,3 4 2 4 2 N 1007,6 17

tt = Temperatura
td = dewpoint
ff = velocità del vento
fx = gusts
dd = direzione del vento
ppp = reduced air pressure
vv = visibility

Stazioni seguenti

WeatherPro
AMSI
MeteoEarth